Flag for Switzerland Weather past 2 weeks in Baar, Zug, Switzerland

Now
31 °F

Chilly.


Feels Like: 28 °F
Forecast: 22 / 34 °F
Wind: 3 mph from Southwest

Location: Zurich Town / Ville.

Current Time: Dec 27, 2014 at 1:27:53 PM

Latest Report: Dec 27, 2014 at 12:00 PM


Visibility: N/A

Pressure: 29.65 "Hg

Humidity: 100%

Dew point: 31 °F

Location of BaarLocation

Historic Weather in Baar — Graph

°F

Baar temperature yesterday

Maximum temperature yesterday: 38 °F (at 2:00 PM)
Minimum temperature yesterday: 31 °F (at 9:00 PM)
Average temperature yesterday: 34 °F

Past Weeks' High & Low Weather Summary

 TemperatureHumidityPressure
High54 °F (Dec 19, 2:00 PM)100% (Dec 27, 12:00 PM)30.60 "Hg (Dec 27, 12:00 PM)
Low29 °F (Dec 27, 8:00 AM)43% (Dec 13, 1:00 PM)29.65 "Hg (Dec 27, 12:00 PM)
Average42 °F77%30.21 "Hg
* Reported Dec 12 12:00 Noon — Dec 27 12:00 Noon, Baar, Weather by CustomWeather, © 2014

Note: Actual official high and low records may vary slightly from our data, if they occured in-between our weather recording intervals... More about our weather records

Advertising

Baar weather history for previous 24 hours

 ConditionsComfort  
Time TempWeatherWind HumidityBarometerVisibility
12:00 PM
Dec 27
31 °FChilly.3 mph100%29.65 "HgN/A
11:00 AM31 °FChilly.3 mph99%29.67 "HgN/A
10:00 AM30 °FChilly.5 mph98%29.70 "HgN/A
9:00 AM29 °FChilly.6 mph97%29.76 "HgN/A
8:00 AM29 °FChilly.5 mph98%29.80 "HgN/A
7:00 AM29 °FPassing clouds.5 mph96%29.86 "HgN/A
6:00 AM30 °FChilly.6 mph88%29.92 "HgN/A
5:00 AM31 °FChilly.5 mph77%29.98 "HgN/A
4:00 AM31 °FChilly.3 mph80%30.06 "HgN/A
3:00 AM31 °FChilly.3 mph86%30.13 "HgN/A
2:00 AM30 °FChilly.2 mph91%30.17 "HgN/A
1:00 AM31 °FChilly.3 mph91%30.22 "HgN/A
12:00 AM31 °FChilly.2 mph93%30.26 "HgN/A
11:00 PM
Dec 26
31 °FChilly.1 mph88%30.31 "HgN/A
9:00 PM31 °FChilly.1 mph89%30.37 "HgN/A
8:00 PM31 °FChilly.1 mph89%30.40 "HgN/A
7:00 PM32 °FPassing clouds.2 mph85%30.40 "HgN/A
6:00 PM34 °FChilly.2 mph77%30.41 "HgN/A
5:00 PM35 °FChilly.3 mph74%30.41 "HgN/A
4:00 PM36 °FChilly.5 mph75%30.42 "HgN/A
3:00 PM37 °FChilly.5 mph71%30.41 "HgN/A
2:00 PM38 °FChilly.6 mph71%30.41 "HgN/A
1:00 PM37 °FChilly.7 mph73%30.44 "HgN/A
Weather by CustomWeather, © 2014

See weather overviewHow to use our weather pages